Regional Weather Roundup
Issued by NWS Portland, ME

Home | Current Version | Previous Version | Text Only | Print | Product List | Glossary On
Versions: 1 2 3 4 5 6 7 8 9 10 11 12 13 14 15 16 17 18 19 20 21 22 23 24 25 26 27 28 29 30 31 32 33 34 35 36 37 38 39 40 41 42 43 44 45 46 47 48 49 50
000
ASUS41 KGYX 011710
RWRGYX
WEATHER ROUNDUP FOR MAINE AND NEW HAMPSHIRE
NATIONAL WEATHER SERVICE GRAY ME
100 PM EDT WED JUL 01 2015

MEZ002-005-006-010-012-015-018-020-021-024-026-027-029-011800-
MAINE

CITY           SKY/WX    TMP DP  RH WIND       PRES   REMARKS
PORTLAND       CLOUDY    63  61  93 SE7       29.78F
SANFORD        CLOUDY    63  59  88 SE3       29.76F
BAR HARBOR     CLOUDY    63  61  94 E5        29.86F
WISCASSET      CLOUDY    62  60  93 SE5       29.80S
ROCKLAND       CLOUDY    57  55  94 E12       29.78F VSB 1/4
FRYEBURG       LGT RAIN  62  60  93 E6        29.76F FOG
LEWISTONAUBURN CLOUDY    63  57  82 SE3       29.78F
AUGUSTA        LGT RAIN  62  58  86 VRB3      29.80F
BANGOR         CLOUDY    66  58  75 SE12G20   29.83F
GREENVILLE       N/A     62  60  93 VRB6      29.79F
MILLINOCKET    CLOUDY    68  60  75 SE7       29.84F
HOULTON        CLOUDY    70  56  61 SE12G18   29.85F
PRESQUE ISLE   CLOUDY    66  57  72 SE8       29.86F
FRENCHVILLE    LGT RAIN  63  58  83 S9        29.87F
CARIBOU        LGT RAIN  65  58  78 SE6       29.87F
$$

NHZ002-005-008-009-011-012-014-011800-
NEW HAMPSHIRE

CITY           SKY/WX    TMP DP  RH WIND       PRES   REMARKS
PORTSMOUTH     CLOUDY    64  61  90 SE13G24   29.73F
ROCHESTER      CLOUDY    64  61  90 SE7       29.74F
NASHUA         CLOUDY    70  68  93 SE5       29.73F
MANCHESTER     LGT RAIN  67  65  93 SE8       29.71F FOG
CONCORD        LGT RAIN  67  64  90 E3        29.72F
LACONIA        CLOUDY    63  61  94 W5        29.74F
PLYMOUTH       CLOUDY    63  63 100 E5        29.74F
BERLIN         LGT RAIN  62  58  86 SE12G18   29.76F
WHITEFIELD     CLOUDY    65  58  78 VRB3      29.72F
JAFFREY        CLOUDY    69  65  86 SW7       29.75F
KEENE          CLOUDY    70  64  83 S9        29.73F
LEBANON        CLOUDY    67  63  87 CALM      29.71F
MT WASHINGTON  RAIN      45  45 100 SE35G46     N/A  VSB 0
$$

VTZ005-007-008-011800-
VERMONT

CITY           SKY/WX    TMP DP  RH WIND       PRES   REMARKS
ST JOHNSBURY     N/A     65  61  87 MISG      29.69F
MONTPELIER     LGT RAIN  64  61  90 S10       29.74F
BURLINGTON     LGT RAIN  66  63  90 S13       29.65F
$$

MAZ007-012-024-CTZ003-RIZ002-NYZ038-NYZ072-011800-
SOUTHERN NEW ENGLAND AND NY

CITY           SKY/WX    TMP DP  RH WIND       PRES   REMARKS
BOSTON         PTSUNNY   74  68  81 S10       29.73F
WORCESTER      PTSUNNY   73  65  75 SW12      29.75F
NANTUCKET      CLOUDY    71  68  90 S12       29.81F FOG
PROVIDENCE     MOSUNNY   79  67  66 SW12G22   29.75F
HARTFORD       PTSUNNY   79  66  64 SW12      29.72F
ALBANY         PTSUNNY   76  66  71 S9        29.71F
NEW YORK CITY  PTSUNNY   79  62  56 SW13G18   29.78F
$$

ANZ081-ANZ082-ANZ150-NHZ014-MEZ023>029-011800-
COASTAL MARINE OBSERVATIONS

STATION/POSITION TIME  TEMP    WIND        PRES    WAVE
                       AIR SEA DIR/SP/G            HT/PER
                 (UTC) (F)     (DEG/KT/KT) (MB)    (FT/S)
MOUNT DESERT ROC 1700   55      90/ 12/ 12 1011.0F
MATINICUS ROCK   1700   56     120/ 29/ 31 1007.8F
ISLE OF SHOALS   1700   61     160/ 23/ 24 1006.4R
JEFFREYS LEDGE   1603      58                N/A     3/ 8
CASHES LEDGE BUO 1650   58 56              1007.6F   3/ 8
GEORGES BANK BUO 1650   66 58  190/  8/ 10 1011.9F   5/ 8
$$

.............KEY..............
   WCI - WIND CHILL
   TC  - TEMPERATURE IN CELSIUS
   VSB - VISIBILITY IN MILES
   HX  - HEAT INDEX
   FAIR- INDICATES FEW OR NO CLOUDS BELOW 12,000 FT, WITH NO
         SIGNIFICANT WEATHER AND/OR OBSTRUCTIONS TO VISIBILITY.





USA.gov is the U.S. government's official web portal to all federal, state and local government web resources and services.